EW4258 Weather Reports


Display with metric or nautical units.
time (UTC)temp
F
wind
direction
speed
MPH
gust
MPH
rain 1hr
in
rain 24hr
in
rain mn
in
humidity
%
barometer
mb
20200408224110 42 135 0.0 0.0 0.00 0.00 0.00 68 1025.4
20200408223110 42 67 0.0 0.0 0.00 0.00 0.00 67 1025.4
20200408222110 43 67 0.0 0.0 0.00 0.00 0.00 67 1025.5
20200408221109 43 157 0.0 0.0 0.00 0.00 0.00 66 1025.5
20200408220109 43 360 0.0 0.0 0.00 0.00 0.00 66 1025.8
20200408215114 44 90 0.0 2.0 0.00 0.00 0.00 65 1025.8
20200408214113 44 112 0.0 0.0 0.00 0.00 0.00 64 1025.5
20200408213113 44 90 0.0 2.0 0.00 0.00 0.00 63 1025.5
20200408212113 45 157 0.0 0.0 0.00 0.00 0.00 62 1025.5
20200408211113 46 180 1.0 0.0 0.00 0.00 0.00 61 1025.5
20200408210113 46 112 0.0 0.0 0.00 0.00 0.00 61 1025.8
20200408205113 46 135 0.0 0.0 0.00 0.00 0.00 59 1025.8
20200408204113 47 157 0.0 0.0 0.00 0.00 0.00 58 1025.3
20200408203113 48 45 0.0 0.0 0.00 0.00 0.00 57 1025.3
20200408202113 48 135 0.0 0.0 0.00 0.00 0.00 56 1025.4
20200408201113 49 225 1.0 0.0 0.00 0.00 0.00 55 1025.4
20200408200113 49 360 2.0 1.0 0.00 0.00 0.00 55 1025.1
20200408195113 49 180 1.0 2.0 0.00 0.00 0.00 54 1025.1
20200408194113 50 67 1.0 1.0 0.00 0.00 0.00 53 1024.8
20200408193113 51 225 0.0 0.0 0.00 0.00 0.00 51 1024.8
20200408192113 52 360 1.0 1.0 0.00 0.00 0.00 49 1024.6
20200408191113 52 67 0.0 2.0 0.00 0.00 0.00 48 1024.6
20200408190113 53 157 1.0 1.0 0.00 0.00 0.00 47 1024.5
20200408185113 54 157 1.0 0.0 0.00 0.00 0.00 45 1024.5
20200408184113 55 67 1.0 2.0 0.00 0.00 0.00 43 1023.9
20200408183113 57 90 2.0 3.0 0.00 0.00 0.00 41 1023.9
20200408182112 58 112 1.0 2.0 0.00 0.00 0.00 40 1024.0
20200408181112 59 90 2.0 1.0 0.00 0.00 0.00 39 1024.0
20200408180112 60 67 1.0 3.0 0.00 0.00 0.00 37 1023.6
20200408175112 62 90 2.0 3.0 0.00 0.00 0.00 35 1023.6
20200408174112 64 337 3.0 4.0 0.00 0.00 0.00 34 1023.6
20200408173112 65 360 3.0 7.0 0.00 0.00 0.00 34 1023.6
20200408172112 66 202 3.0 2.0 0.00 0.00 0.00 32 1023.4
20200408171112 68 337 3.0 5.0 0.00 0.00 0.00 31 1023.4
20200408170112 68 315 4.0 3.0 0.00 0.00 0.00 30 1023.4
20200408165112 69 360 4.0 10.0 0.00 0.00 0.00 29 1023.4
20200408164112 70 337 4.0 7.0 0.00 0.00 0.00 29 1023.5
20200408163112 71 315 3.0 9.0 0.00 0.00 0.00 28 1023.5
20200408162112 72 157 2.0 7.0 0.00 0.00 0.00 24 1023.4
20200408161112 73 315 1.0 0.0 0.00 0.00 0.00 19 1023.4
20200408160112 73 202 2.0 1.0 0.00 0.00 0.00 19 1023.5
20200408155112 73 202 2.0 3.0 0.00 0.00 0.00 19 1023.5
20200408154112 74 225 2.0 1.0 0.00 0.00 0.00 19 1023.5
20200408153112 74 135 1.0 3.0 0.00 0.00 0.00 20 1023.5
20200408152112 74 247 2.0 1.0 0.00 0.00 0.00 18 1023.8
20200408151112 74 135 2.0 3.0 0.00 0.00 0.00 19 1023.8
20200408150112 75 180 2.0 3.0 0.00 0.00 0.00 18 1023.9
20200408145112 74 247 2.0 1.0 0.00 0.00 0.00 18 1023.9
20200408144111 75 112 1.0 3.0 0.00 0.00 0.00 18 1024.0
20200408143122 74 22 1.0 1.0 0.00 0.00 0.00 20 1024.0
20200408142112 74 157 3.0 2.0 0.00 0.00 0.00 19 1023.9
20200408141111 74 225 3.0 3.0 0.00 0.00 0.00 20 1023.9
20200408140111 74 202 3.0 7.0 0.00 0.00 0.00 18 1024.4
20200408135111 74 67 3.0 5.0 0.00 0.00 0.00 20 1024.4
20200408134111 74 202 2.0 1.0 0.00 0.00 0.00 20 1024.6
20200408133111 74 360 1.0 1.0 0.00 0.00 0.00 21 1024.6
20200408132112 74 157 1.0 2.0 0.00 0.00 0.00 21 1024.6
20200408131111 74 315 2.0 1.0 0.00 0.00 0.00 21 1024.6
20200408130122 75 202 2.0 7.0 0.00 0.00 0.00 21 1025.0
20200408125111 74 202 2.0 4.0 0.00 0.00 0.00 21 1025.0
20200408124111 74 225 2.0 4.0 0.00 0.00 0.00 21 1025.2
20200408123111 74 225 3.0 6.0 0.00 0.00 0.00 22 1025.2
20200408122111 74 135 2.0 4.0 0.00 0.00 0.00 22 1025.4
20200408121111 74 247 2.0 2.0 0.00 0.00 0.00 22 1025.4
20200408120111 73 270 1.0 2.0 0.00 0.00 0.00 22 1025.4
20200408115111 73 135 2.0 1.0 0.00 0.00 0.00 21 1025.4
20200408114111 73 157 1.0 4.0 0.00 0.00 0.00 22 1025.9
20200408113111 71 337 1.0 1.0 0.00 0.00 0.00 25 1025.9
20200408112110 70 180 1.0 1.0 0.00 0.00 0.00 26 1026.0
20200408111110 70 337 1.0 2.0 0.00 0.00 0.00 27 1026.0
20200408110110 69 202 1.0 4.0 0.00 0.00 0.00 29 1026.3
20200408105110 68 157 1.0 2.0 0.00 0.00 0.00 29 1026.3
20200408104110 67 225 2.0 4.0 0.00 0.00 0.00 28 1026.6
20200408103110 67 135 1.0 2.0 0.00 0.00 0.00 31 1026.6
20200408102110 66 225 0.0 1.0 0.00 0.00 0.00 30 1026.8
20200408101110 65 292 2.0 2.0 0.00 0.00 0.00 31 1026.8
20200408100110 65 90 1.0 1.0 0.00 0.00 0.00 35 1027.2
20200408095110 64 112 2.0 2.0 0.00 0.00 0.00 36 1027.2
20200408094110 62 45 1.0 0.0 0.00 0.00 0.00 38 1027.6
20200408093109 61 202 1.0 1.0 0.00 0.00 0.00 39 1027.6
20200408092110 60 270 1.0 0.0 0.00 0.00 0.00 41 1027.8
20200408091109 59 247 2.0 4.0 0.00 0.00 0.00 42 1027.8
20200408090113 58 337 0.0 3.0 0.00 0.00 0.00 44 1028.5
20200408085113 58 360 1.0 0.0 0.00 0.00 0.00 46 1028.5
20200408084114 56 135 1.0 2.0 0.00 0.00 0.00 48 1028.2
20200408083113 55 135 1.0 1.0 0.00 0.00 0.00 49 1028.2
20200408082113 54 135 1.0 0.0 0.00 0.00 0.00 50 1028.4
20200408081113 53 225 0.0 2.0 0.00 0.00 0.00 53 1028.4
20200408080113 51 180 0.0 1.0 0.00 0.00 0.00 55 1028.6
20200408075113 50 157 0.0 0.0 0.00 0.00 0.00 57 1028.6
20200408074113 49 90 1.0 0.0 0.00 0.00 0.00 60 1029.4
20200408073113 48 202 0.0 0.0 0.00 0.00 0.00 62 1029.4
20200408072113 46 337 0.0 0.0 0.00 0.00 0.00 65 1028.9
20200408071113 46 112 0.0 0.0 0.00 0.00 0.00 67 1028.9
20200408070112 44 247 0.0 0.0 0.00 0.00 0.00 70 1029.0
20200408065113 43 67 0.0 0.0 0.00 0.00 0.00 72 1029.0
20200408064113 42 360 0.0 1.0 0.00 0.00 0.00 73 1028.9
20200408063113 40 270 0.0 0.0 0.00 0.00 0.00 75 1028.9
20200408062112 39 135 0.0 0.0 0.00 0.00 0.00 76 1028.9
20200408061112 37 135 0.0 0.0 0.00 0.00 0.00 78 1028.9
20200408060112 36 360 0.0 0.0 0.00 0.00 0.00 79 1029.2
20200408055112 35 67 0.0 0.0 0.00 0.00 0.00 81 1029.2
20200408054112 33 45 0.0 0.0 0.00 0.00 0.00 84 1028.8
20200408053112 31 135 0.0 0.0 0.00 0.00 0.00 81 1028.8
20200408052112 31 90 0.0 1.0 0.00 0.00 0.00 81 1028.8
20200408051112 31 157 0.0 0.0 0.00 0.00 0.00 81 1028.8
20200408050112 31 112 1.0 0.0 0.00 0.00 0.00 81 1028.9
20200408045112 31 67 0.0 1.0 0.00 0.00 0.00 81 1028.9
20200408044111 31 67 0.0 0.0 0.00 0.00 0.00 80 1028.9
20200408043111 31 157 0.0 0.0 0.00 0.00 0.00 80 1028.9
20200408042111 31 67 0.0 0.0 0.00 0.00 0.00 80 1028.8
20200408041111 31 135 0.0 0.0 0.00 0.00 0.00 80 1028.8
20200408040111 31 135 0.0 0.0 0.00 0.00 0.00 79 1028.8
20200408035112 31 135 0.0 0.0 0.00 0.00 0.00 79 1028.8
20200408034110 31 112 0.0 0.0 0.00 0.00 0.00 79 1029.0
20200408033110 32 45 0.0 1.0 0.00 0.00 0.00 79 1029.0
20200408032110 32 157 0.0 0.0 0.00 0.00 0.00 78 1029.1
20200408031110 32 90 0.0 0.0 0.00 0.00 0.00 78 1029.1
20200408030110 32 112 0.0 0.0 0.00 0.00 0.00 78 1029.1
20200408025110 33 67 0.0 1.0 0.00 0.00 0.00 78 1029.1
20200408024110 33 112 0.0 0.0 0.00 0.00 0.00 77 1029.1
20200408023110 33 360 0.0 0.0 0.00 0.00 0.00 77 1029.1
20200408022110 33 67 0.0 0.0 0.00 0.00 0.00 76 1029.1
20200408021110 33 157 0.0 0.0 0.00 0.00 0.00 76 1029.1
20200408020110 33 157 1.0 0.0 0.00 0.00 0.00 76 1029.1
20200408015110 34 112 0.0 0.0 0.00 0.00 0.00 76 1029.1
20200408014110 34 90 1.0 0.0 0.00 0.00 0.00 76 1029.2
20200408013110 34 67 0.0 2.0 0.00 0.00 0.00 75 1029.2
20200408012110 34 135 0.0 0.0 0.00 0.00 0.00 74 1029.1
20200408011110 34 135 0.0 0.0 0.00 0.00 0.00 74 1029.1
20200408010110 35 67 1.0 1.0 0.00 0.00 0.00 74 1029.3
20200408005110 35 67 0.0 1.0 0.00 0.00 0.00 74 1029.3
20200408004110 35 180 0.0 0.0 0.00 0.00 0.00 72 1029.5
20200408003110 36 135 0.0 0.0 0.00 0.00 0.00 72 1029.5
20200408002111 36 45 0.0 0.0 0.00 0.00 0.00 72 1029.6
20200408000110 36 202 0.0 0.0 0.00 0.00 0.00 70 1029.7
20200407235110 36 135 0.0 0.0 0.00 0.00 0.00 70 1029.7
20200407234110 37 135 1.0 0.0 0.00 0.00 0.00 69 1029.6
20200407233110 38 135 0.0 0.0 0.00 0.00 0.00 69 1029.6
20200407232110 38 135 1.0 1.0 0.00 0.00 0.00 69 1029.6
20200407231110 38 90 0.0 0.0 0.00 0.00 0.00 68 1029.6
20200407230110 38 67 0.0 0.0 0.00 0.00 0.00 68 1029.7
20200407225110 39 135 0.0 0.0 0.00 0.00 0.00 67 1029.7